Location: *
(32.8667°N, 13.1833°E)
Time: 17:37:10
(UTC+00:00)

Cosmos 1331 Rocket - Pass Details

Date: 18 July 2019
Orbit: 749 x 778 km, 74.0° (Epoch: 24 August)

Event Time Altitude Azimuth Distance (km) Brightness Sun altitude
Rises 19:04:25 0° 340° (NNW) 3,262 8.2 -9.8°
Reaches altitude 10° 19:06:49 10° 339° (NNW) 2,332 7.4 -10.2°
Maximum altitude 19:12:06 72° 256° (WSW) 819 4.3 -11.2°
Drops below altitude 10° 19:17:20 10° 172° (S) 2,316 6.1 -12.1°
Enters shadow 19:18:22 - 171° (S) 2,711 6.4 -12.2°
